When you browse on this site, cookies collect data to enhance your experience and personalize the content and advertising you see.
Visit our Privacy Policy to learn more. By continuing to use the site, you agree to this use of cookies and data.
  • In Spain
  • List of Countries
  • For 7 days
  • Water Temperature
  • Weather Map
  • Weather Widgets
  • user-avatar
    Login

    Hourly Weather Kerns

    Today, 30 March, Monday

    Time Temperature Precipitation Wind Pressure Humidity
    00:00 +25°C° 0.1 mm 4 mps 758 mmHg 98%
    01:00 +25°C° 0.1 mm 4 mps 758 mmHg 98%
    02:00 +25°C° 0.1 mm 5 mps 757 mmHg 98%
    03:00 +25°C° 0.1 mm 5 mps 757 mmHg 98%
    04:00 +25°C° 0 mm 5 mps 756 mmHg 98%
    05:00 +25°C° 0.1 mm 5 mps 757 mmHg 98%
    06:00 +25°C° 0.1 mm 5 mps 757 mmHg 98%
    07:00 +25°C° 0.1 mm 5 mps 758 mmHg 97%
    08:00 +27°C° 0.3 mm 5 mps 758 mmHg 92%
    09:00 +28°C° 0.3 mm 5 mps 758 mmHg 86%
    10:00 +29°C° 0.3 mm 6 mps 758 mmHg 81%
    11:00 +30°C° 0.3 mm 6 mps 758 mmHg 78%
    12:00 +32°C° 0.3 mm 6 mps 757 mmHg 75%
    13:00 +32°C° 0.3 mm 5 mps 757 mmHg 72%
    14:00 +32°C° 0.3 mm 5 mps 757 mmHg 74%
    15:00 +30°C° 0.3 mm 5 mps 756 mmHg 75%
    16:00 +30°C° 0.3 mm 5 mps 756 mmHg 77%
    17:00 +29°C° 0.4 mm 5 mps 756 mmHg 83%
    18:00 +27°C° 0.4 mm 5 mps 757 mmHg 90%
    19:00 +26°C° 0.4 mm 4 mps 757 mmHg 96%
    20:00 +26°C° 0.6 mm 4 mps 758 mmHg 97%
    21:00 +25°C° 0.6 mm 4 mps 758 mmHg 97%
    22:00 +25°C° 0.6 mm 4 mps 759 mmHg 98%
    23:00 +25°C° 0.4 mm 4 mps 759 mmHg 98%

    Tomorrow, 31 March, Tuesday

    Time Temperature Precipitation Wind Pressure Humidity
    00:00 +25°C° 0.4 mm 4 mps 758 mmHg 98%
    01:00 +25°C° 0.4 mm 4 mps 758 mmHg 98%
    02:00 +25°C° 0.1 mm 4 mps 757 mmHg 98%
    03:00 +25°C° 0.1 mm 4 mps 757 mmHg 98%
    04:00 +25°C° 0.1 mm 4 mps 757 mmHg 98%
    05:00 +25°C° 0 mm 4 mps 757 mmHg 98%
    06:00 +25°C° 0 mm 4 mps 758 mmHg 98%
    07:00 +25°C° 0 mm 5 mps 758 mmHg 98%
    08:00 +26°C° 0.1 mm 5 mps 758 mmHg 91%
    09:00 +28°C° 0.1 mm 5 mps 758 mmHg 84%
    10:00 +29°C° 0.1 mm 5 mps 759 mmHg 78%
    11:00 +30°C° 0 mm 5 mps 758 mmHg 71%
    12:00 +32°C° 0 mm 5 mps 758 mmHg 64%
    13:00 +33°C° 0 mm 5 mps 757 mmHg 58%
    14:00 +33°C° 0 mm 5 mps 757 mmHg 59%
    15:00 +32°C° 0 mm 5 mps 757 mmHg 61%
    16:00 +32°C° 0 mm 5 mps 756 mmHg 62%
    17:00 +29°C° 0 mm 5 mps 757 mmHg 72%
    18:00 +27°C° 0 mm 4 mps 757 mmHg 82%
    19:00 +25°C° 0 mm 4 mps 758 mmHg 92%
    20:00 +25°C° 0 mm 4 mps 758 mmHg 94%
    21:00 +25°C° 0 mm 4 mps 759 mmHg 95%
    22:00 +23°C° 0 mm 4 mps 759 mmHg 96%
    23:00 +24°C° 0 mm 3 mps 759 mmHg 96%

    Day after tomorrow, 1 April, Wednesday

    Time Temperature Precipitation Wind Pressure Humidity
    00:00 +24°C° 0 mm 3 mps 758 mmHg 97%
    01:00 +24°C° 0 mm 3 mps 758 mmHg 97%
    02:00 +24°C° 0 mm 3 mps 758 mmHg 97%
    03:00 +24°C° 0 mm 3 mps 757 mmHg 97%
    04:00 +24°C° 0 mm 3 mps 757 mmHg 98%
    05:00 +24°C° 0.1 mm 3 mps 757 mmHg 97%
    06:00 +24°C° 0.1 mm 3 mps 758 mmHg 97%
    07:00 +23°C° 0.1 mm 4 mps 758 mmHg 97%
    08:00 +26°C° 0.1 mm 4 mps 758 mmHg 88%
    09:00 +28°C° 0.1 mm 4 mps 758 mmHg 79%
    10:00 +30°C° 0.1 mm 5 mps 759 mmHg 70%
    11:00 +32°C° 0 mm 5 mps 758 mmHg 65%
    12:00 +32°C° 0 mm 5 mps 758 mmHg 61%
    13:00 +33°C° 0 mm 5 mps 757 mmHg 56%
    14:00 +33°C° 0.1 mm 5 mps 757 mmHg 62%
    15:00 +32°C° 0.1 mm 5 mps 757 mmHg 67%
    16:00 +30°C° 0.1 mm 5 mps 756 mmHg 73%
    17:00 +28°C° 0.2 mm 5 mps 757 mmHg 80%
    18:00 +27°C° 0.2 mm 5 mps 758 mmHg 88%
    19:00 +25°C° 0.2 mm 4 mps 758 mmHg 95%
    20:00 +25°C° 0 mm 4 mps 759 mmHg 96%
    21:00 +23°C° 0 mm 4 mps 759 mmHg 97%
    22:00 +23°C° 0 mm 4 mps 759 mmHg 97%
    23:00 +23°C° 0 mm 4 mps 759 mmHg 97%

    2 April, Thursday

    Time Temperature Precipitation Wind Pressure Humidity
    00:00 +23°C° 0 mm 4 mps 758 mmHg 97%
    01:00 +22°C° 0 mm 4 mps 758 mmHg 98%
    02:00 +22°C° 0 mm 4 mps 758 mmHg 97%
    03:00 +22°C° 0 mm 4 mps 758 mmHg 97%
    04:00 +22°C° 0 mm 4 mps 757 mmHg 97%
    05:00 +22°C° 0.1 mm 4 mps 757 mmHg 97%
    06:00 +22°C° 0.1 mm 4 mps 758 mmHg 96%
    07:00 +23°C° 0.1 mm 4 mps 758 mmHg 96%
    08:00 +26°C° 0.2 mm 4 mps 758 mmHg 89%
    09:00 +27°C° 0.2 mm 5 mps 759 mmHg 82%
    10:00 +29°C° 0.2 mm 5 mps 759 mmHg 76%
    11:00 +30°C° 0.2 mm 5 mps 758 mmHg 72%
    12:00 +32°C° 0.2 mm 5 mps 757 mmHg 68%
    13:00 +32°C° 0.2 mm 5 mps 757 mmHg 64%
    14:00 +32°C° 0.1 mm 5 mps 756 mmHg 65%
    15:00 +32°C° 0.1 mm 5 mps 756 mmHg 67%
    16:00 +30°C° 0.1 mm 5 mps 756 mmHg 68%
    17:00 +28°C° 0 mm 5 mps 756 mmHg 74%
    18:00 +27°C° 0 mm 4 mps 756 mmHg 81%
    19:00 +25°C° 0 mm 4 mps 757 mmHg 88%
    20:00 +23°C° 0.1 mm 4 mps 757 mmHg 90%
    21:00 +23°C° 0.1 mm 4 mps 758 mmHg 93%
    22:00 +22°C° 0.1 mm 3 mps 758 mmHg 95%
    23:00 +22°C° 0.1 mm 3 mps 758 mmHg 96%

    3 April, Friday

    Time Temperature Precipitation Wind Pressure Humidity
    00:00 +22°C° 0.1 mm 3 mps 758 mmHg 97%
    01:00 +22°C° 0.1 mm 3 mps 757 mmHg 97%
    02:00 +22°C° 0 mm 3 mps 757 mmHg 97%
    03:00 +23°C° 0 mm 2 mps 757 mmHg 97%
    04:00 +21°C° 0 mm 2 mps 756 mmHg 97%
    05:00 +23°C° 0.1 mm 2 mps 757 mmHg 96%
    06:00 +23°C° 0.1 mm 2 mps 757 mmHg 95%
    07:00 +22°C° 0.1 mm 3 mps 757 mmHg 94%
    08:00 +25°C° 0 mm 3 mps 757 mmHg 85%
    09:00 +28°C° 0 mm 3 mps 758 mmHg 77%
    10:00 +30°C° 0 mm 4 mps 758 mmHg 68%
    11:00 +32°C° 0 mm 4 mps 757 mmHg 61%
    12:00 +33°C° 0 mm 4 mps 756 mmHg 54%
    13:00 +34°C° 0 mm 4 mps 756 mmHg 47%
    14:00 +34°C° 0 mm 4 mps 756 mmHg 51%
    15:00 +33°C° 0 mm 5 mps 755 mmHg 54%
    16:00 +33°C° 0 mm 5 mps 755 mmHg 57%
    17:00 +29°C° 0 mm 5 mps 756 mmHg 68%
    18:00 +27°C° 0 mm 4 mps 756 mmHg 80%
    19:00 +25°C° 0 mm 4 mps 756 mmHg 91%
    20:00 +25°C° 0 mm 4 mps 757 mmHg 93%
    21:00 +24°C° 0 mm 3 mps 757 mmHg 95%
    22:00 +24°C° 0 mm 3 mps 758 mmHg 97%
    23:00 +22°C° 0 mm 3 mps 757 mmHg 97%

    4 April, Saturday

    Time Temperature Precipitation Wind Pressure Humidity
    00:00 +22°C° 0 mm 3 mps 757 mmHg 97%
    01:00 +23°C° 0 mm 2 mps 757 mmHg 97%
    02:00 +22°C° 0 mm 3 mps 756 mmHg 97%
    03:00 +21°C° 0 mm 3 mps 756 mmHg 97%
    04:00 +21°C° 0 mm 3 mps 756 mmHg 97%
    05:00 +21°C° 0 mm 3 mps 757 mmHg 97%
    06:00 +21°C° 0 mm 3 mps 757 mmHg 96%
    07:00 +22°C° 0 mm 3 mps 757 mmHg 96%
    08:00 +25°C° 0 mm 3 mps 758 mmHg 82%
    09:00 +28°C° 0 mm 3 mps 758 mmHg 69%
    10:00 +31°C° 0 mm 3 mps 758 mmHg 55%
    11:00 +33°C° 0 mm 3 mps 757 mmHg 53%
    12:00 +34°C° 0 mm 3 mps 757 mmHg 51%
    13:00 +34°C° 0 mm 3 mps 756 mmHg 49%
    14:00 +34°C° 0 mm 4 mps 756 mmHg 53%
    15:00 +33°C° 0 mm 4 mps 756 mmHg 58%
    16:00 +33°C° 0 mm 4 mps 755 mmHg 62%
    17:00 +30°C° 0 mm 3 mps 756 mmHg 73%
    18:00 +27°C° 0 mm 3 mps 756 mmHg 84%
    19:00 +25°C° 0 mm 2 mps 757 mmHg 96%
    20:00 +25°C° 0 mm 2 mps 757 mmHg 96%
    21:00 +25°C° 0 mm 2 mps 758 mmHg 96%
    22:00 +25°C° 0 mm 2 mps 758 mmHg 96%
    23:00 +25°C° 0 mm 2 mps 758 mmHg 96%
    Show more